Regional Weather Roundup
Issued by NWS San Diego, CA

Home | Current Version | Previous Version | Text Only | Print | Product List | Glossary On
Versions: 1 2 3 4 5 6 7 8 9 10 11 12 13 14 15 16 17 18 19 20 21 22 23 24 25 26 27 28 29 30 31 32 33 34 35 36 37 38 39 40 41 42 43 44 45 46 47 48 49 50
000
ASUS46 KSGX 182011
RWRSGX
SAN DIEGO HOURLY WEATHER ROUNDUP
NATIONAL WEATHER SERVICE SAN DIEGO CA
1200 PM PST SAT NOV 18 2017

NOTE: "FAIR" INDICATES FEW OR NO CLOUDS BELOW 12,000 FEET WITH NO
SIGNIFICANT WEATHER AND/OR OBSTRUCTIONS TO VISIBILITY.

CAZ042-043-060-061-PZZ750-775-182100-

GREATER SAN DIEGO AREA

CITY           SKY/WX    TMP DP  RH WIND       PRES   REMARKS
SAN DIEGO AP   PTSUNNY   69  57  65 NW9       30.11F
NATIONAL CITY    N/A     70  60  70 NW7       30.11F
CHULA VISTA      N/A     72  60  66 W3        30.02F
IMPERIAL BEACH SUNNY     69  56  62 NW12      30.09F
BROWN FIELD    SUNNY     74  57  55 NW7       30.09F
MIRAMAR MCAS   MOSUNNY   76  57  51 NW6       30.10F
MONTGOMERY FLD SUNNY     76  53  44 NW7       30.10F
GILLESPIE FLD  SUNNY     77  50  38 W9        30.10F

$$

NORTH SAN DIEGO COUNTY

CITY           SKY/WX    TMP DP  RH WIND       PRES   REMARKS
CAMP PENDLETON SUNNY     76  53  44 VRB3      30.08F
OCEANSIDE AP   SUNNY     72  58  61 SW7       30.09F
OCEANSIDE HBR    N/A     64  60  88 W3        30.12F
VISTA            N/A     74  57  55 CALM      30.08F
CARLSBAD       SUNNY     68  59  73 W7        30.09F
DEL MAR          N/A     66  61  83 CALM      30.12F
LA JOLLA SCRIP   N/A     62  60  92 NW6       30.10F
FALLBROOK        N/A     75  53  45 CALM      30.12F
ESCONDIDO        N/A     76  56  50 SW2       30.10F
SAN MARCOS       N/A     76  55  46 CALM      30.12F

$$

EAST SAN DIEGO COUNTY

CITY           SKY/WX    TMP DP  RH WIND       PRES   REMARKS
RAMONA         SUNNY     75  32  20 NW12      30.11F
LA MESA          N/A     73  54  51 NW3       30.03F
JAMUL            N/A     75  53  45 CALM      30.10F
DESCANSO N       N/A     68  34  29 NE5       30.09F
MT. LAGUNA OBS   N/A     51  30  43 NE3       30.12F
CAMPO            N/A     68  32  26 NE18G28   30.12F

$$

ORANGE COUNTY AND THE LOS ANGELES BASIN

CITY           SKY/WX    TMP DP  RH WIND       PRES   REMARKS
JOHN WAYNE AP  MOSUNNY   73  54  51 VRB3      30.10F
LAGUNA BEACH     N/A     67  61  81 CALM      30.06F
LAKE FOREST FR   N/A     75  53  45 CALM      29.99F
HUNTINGTON BCH   N/A     69  62  77 W6        30.12F
LOS ALAMITOS   MOSUNNY   76  46  35 CALM      30.10F
FULLERTON      SUNNY     79  43  27 CALM      30.10F
LONG BEACH     SUNNY     75  48  38 W3        30.11F
L.A. AP        MOSUNNY   73  54  51 W10       30.12F
L.A. DOWNTOWN  SUNNY     75  50  41 CALM      30.11F

$$

THE INLAND EMPIRE

CITY           SKY/WX    TMP DP  RH WIND       PRES   REMARKS
CORONA         SUNNY     79  29  16 E15       30.11F
CHINO          MOSUNNY   77  45  32 E8        30.12F
ONTARIO        MOSUNNY   74  44  34 S5        30.12F
RIVERSIDE AP   SUNNY     76  26  15 NE12G21   30.12F
MORENO VALLEY    N/A     74  40  28 W6        28.26F
MARCH ARB      SUNNY     75  24  15 N9        30.14F
HORSETHIEF CYN   N/A     74  30  20 NE3       30.13F
PERRIS           N/A     73  35  24 NE3         N/A
HEMET EAST       N/A     71  33  24 CALM      30.20F
FRENCH VALLEY  FAIR      73  37  27 CALM      30.13F
TEMECULA         N/A     72  52  50 N1        30.15F

$$

SAN BERNARDINO AND RIVERSIDE COUNTY MOUNTAINS

CITY           SKY/WX    TMP DP  RH WIND       PRES   REMARKS
BIG BEAR AP    SUNNY     54   9  16 E9        30.29F
ANGELUS OAKS     N/A     58  30  34 CALM      30.14F

$$

SOUTHERN DESERT INCLUDING THE COACHELLA VALLEY

CITY           SKY/WX    TMP DP  RH WIND       PRES   REMARKS
PALM SPRINGS   SUNNY     77  19  11 CALM      30.17F
THOUSAND PALMS   N/A     77  28  16 NW5       30.15F
PALM DESERT      N/A     80  26  14 CALM        N/A
THERMAL        SUNNY     79  21  11 CALM      30.14F
BLYTHE         SUNNY     72  15  11 NW16      30.18F
IMPERIAL AP    SUNNY     76  28  17 NW7       30.14F
EL CENTRO NAS  MOSUNNY   76  22  13 CALM      30.16F
YUMA AZ        SUNNY     76  24  14 N18G24    30.12F
MEXICALI       SUNNY     75  14   9 NW8       30.15F

$$

UPPER DESERT

CITY           SKY/WX    TMP DP  RH WIND       PRES   REMARKS
VICTORVILLE AP SUNNY     63  12  14 CALM      30.26F
HESPERIA         N/A     63  20  19 E7        30.38F
PALMDALE       SUNNY     62  21  20 NE7       30.26F
LANCASTER      SUNNY     62  14  15 E13       30.27F
EDWARDS AFB    MOSUNNY   61  12  14 NE6       30.25F
DAGGETT        SUNNY     61  11  14 E7        30.28F
29 PALMS N     SUNNY     63   8  11 NW7       30.32F
NEEDLES        SUNNY     69  15  12 N21G29    30.23F

$$

REGIONAL REPORTS

CITY           SKY/WX    TMP DP  RH WIND       PRES   REMARKS
SANTA BARBARA  SUNNY     66  54  65 W8        30.14F
SANDBERG       SUNNY     56  15  20 E20G29    30.28F
LAS VEGAS NV   SUNNY     58  12  16 NE6       30.32F
PHOENIX AZ     MOSUNNY   75  34  22 NE3       30.10F
TIJUANA        MOSUNNY   73  54  49 W10       30.11F
ENSENADA NW      N/A     69  32  25 SW6       30.00F

$$

OFFSHORE ISLANDS

CITY           SKY/WX    TMP DP  RH WIND       PRES   REMARKS
CATALINA ARPT  SUNNY     63  57  81 W6        30.16F
SAN NICOLAS IS SUNNY     64  55  72 NW7       30.14F

$$

MARINE AND OFFSHORE BUOY REPORTS

STATION/POSITION SKY/WX   TEMP    WIND        PRES    VSBY  SWELL
                          AIR SEA DIR/SP/G                  HT/PER/DIR
                          (F)     (DEG/KT/KT) (MB)    (MI)  (FT/S/D)
TANNER BANKS               62 63  160/  8/ 10 1020.9F         7/320/12
S CLEMENTE BASIN           64 66  350/  8/ 10 1019.8F         3/270/11
SAN NICOLAS IS.               63                N/A           3/310/11
SO. S. ROSA ISLA           60 61  320/ 16/ 17 1020.8F         3/300/11
W. S. BARBARA CH           58 59  310/ 10/ 12 1020.8
M. S. BARBARA CH           60 60  290/  8/ 10 1021.4
S. MONICA BASIN               66  260/  4/  6 1020.3F         2/190/13
S PEDRO CHANNEL               62                N/A           2/170/13
CMP PENDLETON NS              62                N/A           2/210/13
OCEANSIDE OFFSHR              64                N/A           2/180/13
TORREY PINES OTR              66                N/A           2/200/13
POINT LOMA SOUTH              65                N/A           2/210/13

$$





USA.gov is the U.S. government's official web portal to all federal, state and local government web resources and services.